Back to catalog

SL-16 DEB

AliveLEO
NORAD 39852·DEBRIS·🇷🇺 Russia

Launched Dec 25, 1992 from Baikonur Cosmodrome

Loading…

Next Passes (next 24 hours)

TLE

AgingSource: Space-Track

Epoch: Sep 11, 2026, 09:37 UTC

1 39852U 92093LE  26254.40075457  .00002634  00000-0  49424-3 0  9992
2 39852  70.9983 304.3832 0004604 264.8551  95.2073 14.65698563 16122

Track SL-16 DEB in real time with AllMySat

Download on the App Store